Home   Weather   Providence   Past weeks

Flag for USA Past Weather in Providence, Rhode Island, USA — Yesterday and Last 2 Weeks

Now
38 °F

Mostly cloudy.


Feels Like: 27 °F
Forecast: 36 / 38 °F
Wind: 23 mph from Northeast

Location: Green State Airport

Current Time: Jan 23, 2017 at 6:06:14 pm

Latest Report: Jan 23, 2017 at 4:51 pm


Visibility: 10 mi

Pressure: 29.84 "Hg

Humidity: 73%

Dew Point: 30 °F

Location of ProvidenceLocation

Past Weather in Providence — Graph

°F

Providence Temperature Yesterday

Maximum temperature yesterday: 51 °F (at 12:51 pm)
Minimum temperature yesterday: 34 °F (at 2:17 am)
Average temperature yesterday: 41 °F

High & Low Weather Summary for the Past Weeks

 TemperatureHumidityPressure
High59 °F (Jan 12, 12:51 pm)100% (Jan 22, 2:17 am)30.71 "Hg (Jan 22, 2:17 am)
Low6 °F (Jan 9, 6:51 am)30% (Jan 13, 11:51 pm)29.75 "Hg (Jan 22, 4:51 am)
Average37 °F74%30.17 "Hg
* Reported Jan 8 4:51 pm — Jan 23 4:51 pm, Providence, Weather by CustomWeather, © 2017

Note: Actual official high and low records may vary slightly from our data, if they occured in-between our weather recording intervals... More about our weather records

Advertising

Providence Weather History for the Previous 24 Hours

Scroll right to see more
 ConditionsComfort  
Time TempWeatherWind HumidityBarometerVisibility
4:51 pm
Mon, Jan 23
38 °FMostly cloudy.23 mph73%29.84 "Hg10 mi
3:51 pm38 °FOvercast.16 mph76%29.87 "Hg10 mi
2:51 pm38 °FOvercast.16 mph76%29.89 "Hg10 mi
1:51 pm38 °FLight rain. Mostly cloudy.20 mph79%29.88 "Hg10 mi
12:51 pm38 °FLight rain. More clouds than sun.16 mph73%29.92 "Hg10 mi
12:33 pm38 °FCloudy.21 mph76%29.93 "Hg10 mi
12:04 pm39 °FMore clouds than sun.18 mph70%29.95 "Hg10 mi
10:51 am38 °FLight rain. Mostly cloudy.22 mph76%29.96 "Hg10 mi
9:51 am39 °FPartly sunny.15 mph73%29.98 "Hg10 mi
8:51 am37 °FBroken clouds.16 mph82%29.99 "Hg10 mi
7:51 am36 °FLight rain. Cloudy.17 mph85%29.98 "Hg10 mi
7:12 am36 °FPartly sunny.16 mph82%29.98 "Hg10 mi
6:51 am36 °FPassing clouds.14 mph82%29.98 "Hg10 mi
5:51 am37 °FOvercast.15 mph79%29.96 "Hg10 mi
4:51 am38 °FLight rain. Overcast.16 mph76%29.95 "Hg10 mi
3:51 am39 °FOvercast.17 mph76%29.93 "Hg10 mi
2:51 am40 °FOvercast.14 mph77%29.95 "Hg10 mi
1:51 am40 °FMostly cloudy.14 mph83%29.94 "Hg10 mi
1:04 am40 °FOvercast.12 mph86%29.93 "Hg10 mi
12:51 am40 °FOvercast.14 mph86%29.93 "Hg10 mi
11:51 pm
Sun, Jan 22
41 °FLight rain. Overcast.13 mph86%29.92 "Hg9 mi
10:59 pm41 °FDrizzle. Fog.20 mph89%29.91 "Hg5 mi
9:51 pm41 °FDrizzle. Fog.13 mph89%29.91 "Hg2 mi
9:36 pm41 °FDrizzle. Fog.15 mph89%29.91 "Hg2 mi
8:51 pm41 °FDrizzle. Fog.14 mph93%29.91 "Hg3 mi
7:51 pm42 °FDrizzle. Fog.14 mph89%29.88 "Hg4 mi
6:51 pm43 °FDrizzle. Fog.16 mph89%29.86 "Hg5 mi
6:09 pm44 °FDrizzle. Fog.13 mph85%29.87 "Hg6 mi
Weather by CustomWeather, © 2017

See weather overviewHow to use our weather pages